Regional Weather Roundup
Issued by NWS

Home | Current Version | Previous Version | Graphics & Text | Print | Product List | Glossary On
Versions: 1 2 3 4 5 6 7 8 9 10 11 12 13 14 15 16 17 18 19 20 21 22 23 24 25 26 27 28 29 30 31 32 33 34 35 36 37 38 39 40 41 42 43 44 45 46 47 48 49 50
453
ASUS43 KMPX 290501
RWRMN
WEATHER ROUNDUP FOR MINNESOTA
NATIONAL WEATHER SERVICE TWIN CITIES/CHANHASSEN MN
1200 AM CDT FRI APR 29 2016


NOTE: "FAIR" INDICATES FEW OR NO CLOUDS BELOW 12,000 FEET WITH NO
SIGNIFICANT WEATHER AND/OR OBSTRUCTIONS TO VISIBILITY. N/A MEANS
CURRENT SKY AND/OR WEATHER CONDITIONS ARE NOT AVAILABLE.

MNZ060>063-068>070-290600-
   Twin Cities Metro

CITY           SKY/WX    TMP DP  RH WIND       PRES   REMARKS
TWIN CITIES    CLOUDY    40  36  86 SE7       30.14S
ST PAUL        LGT RAIN  40  37  89 S6        30.15S
CRYSTAL        CLOUDY    41  38  89 S7        30.12F
BLAINE         CLOUDY    41  41 100 S3        30.13S
EDEN PRAIRIE   LGT RAIN  41  36  82 E3        30.13S
SOUTH ST PAUL  CLOUDY    38  38  97 S5        30.14S
LAKE ELMO      CLOUDY    39  37  93 CALM      30.14S
$$
MNZ001>005-007-008-013>017-022>024-027-028-290600-
   Northwest Minnesota

CITY           SKY/WX    TMP DP  RH WIND       PRES   REMARKS
BEMIDJI        PTCLDY    37  29  72 CALM      30.13S
HALLOCK        CLOUDY    39  27  60 N3        30.18S
ROSEAU         CLOUDY    41  34  75 NE5       30.18S
WARROAD        CLOUDY    43  32  65 NE7       30.19S
THIEF RVR FALL CLOUDY    43  21  42 NE5       30.17S
CROOKSTON      CLOUDY    45  25  45 E8        30.17S
FOSSTON        CLOUDY    43  28  56 NE6       30.15S
DETROIT LAKES  CLEAR     45  28  53 CALM      30.14R
MOORHEAD       PTCLDY    46  30  53 E5        30.14S
PARK RAPIDS    CLEAR     38  26  62 S5        30.12S
MAHNOMEN       FAIR      41  30  65 NE7       30.13S
$$
MNZ006-009>011-018-025>026-290600-
   North Central Minnesota

CITY           SKY/WX    TMP DP  RH WIND       PRES   REMARKS
BAUDETTE       CLOUDY    42  28  57 NE7       30.17S
FLAG ISLAND    CLOUDY    43  30  61 NE3       30.19R
INTL FALLS     PTCLDY    41  30  65 N5        30.15S
WASKISH        PTCLDY    43  28  56 NE5       30.16R
BIG FORK       CLEAR     34  28  80 N5        30.13S WCI  30
LONGVILLE      CLEAR     36  30  80 CALM      30.13S
GRAND RAPIDS   CLOUDY    39  21  48 SE7       30.15S
CRANE LAKE     PTCLDY    28  27  93 CALM      30.16S
ORR            CLEAR     34  27  75 CALM      30.11S
COOK           PTCLDY    37  28  70 CALM      30.14S
WALKER         FAIR      41  29  61 CALM      30.13S
$$
MNZ012-019>021-037-290600-
   Northeast Minnesota

CITY           SKY/WX    TMP DP  RH WIND       PRES   REMARKS
DULUTH         CLOUDY    35  25  66 CALM      30.13R
ELY            CLEAR     32  27  80 CALM      30.14R
HIBBING        CLOUDY    29  25  85 CALM      30.14S
EVELETH        PTCLDY    32  27  80 CALM      30.15S
DULUTH HARBOR  CLOUDY    37  34  87 CALM      30.16S
TWO HARBORS    CLOUDY    37  28  70 N5        30.12S
SILVER BAY     CLOUDY    30  25  80 CALM      30.13R
GRAND MARAIS     N/A     31  27  85 CALM      30.14F
G MARAIS ARPRT CLEAR     34  21  60 N6        30.12S WCI  29
$$
MNZ029>031-032-039>041-046>048-054>057-064-290600-
   West Central Minnesota

CITY           SKY/WX    TMP DP  RH WIND       PRES   REMARKS
FERGUS FALLS   CLOUDY    43  37  81 S3        30.14R
WHEATON        CLOUDY    43  41  93 CALM      30.16S
MORRIS         CLOUDY    41  39  93 CALM      30.14S
ALEXANDRIA     CLOUDY    40  36  86 S5        30.15S
ELBOW LAKE     CLOUDY    40  38  92 S5        30.15S
WADENA         MOCLDY    43  36  75 CALM      30.13R
GLENWOOD       CLOUDY    39  37  93 CALM      30.15S
APPLETON       CLOUDY    41  37  87 CALM      30.15S
BENSON         CLOUDY    39  36  87 CALM      30.15S
ORTONVILLE     CLOUDY    41  37  87 CALM      30.15S
MADISON        CLOUDY    41  39  93 CALM      30.14S
WILLMAR        MOCLDY    39  37  93 E5        30.15S
$$
MNZ033>034-036-042>043-049>051-058-059-290600-
   Central Minnesota

CITY           SKY/WX    TMP DP  RH WIND       PRES   REMARKS
ST CLOUD       CLOUDY    40  39  97 NW3       30.14R
SAUK CENTRE    CLOUDY    39  37  94 CALM      30.15R
PAYNESVILLE    CLOUDY    39  40 100 CALM      30.16R
AITKIN         CLOUDY    36  25  64 CALM      30.13S
PINE RIVER     PTCLDY    37  28  70 CALM      30.17S
BRAINERD       PTCLDY    44  20  38 CALM      30.14S
STAPLES        PTCLDY    43  30  61 CALM      30.14R
LONG PRAIRIE   CLOUDY    39  36  87 S3        30.14S
LITTLE FALLS   CLOUDY    41  36  81 CALM      30.15R
LITCHFIELD     DRIZZLE   37  37 100 CALM      30.15R
BUFFALO        DRIZZLE   39  37  92 CALM      30.15S
MAPLE LAKE     DRIZZLE   40  40  97 CALM      30.15S
HUTCHINSON     CLOUDY    38  37  97 CALM      30.15S
$$
MNZ037-044-045-052-053-290600-
   East Central Minnesota

CITY           SKY/WX    TMP DP  RH WIND       PRES   REMARKS
PRINCETON        N/A     41  39  93 CALM      30.14R
MORA           CLOUDY    37  27  65 CALM      30.15S
CAMBRIDGE      CLOUDY    39  34  81 CALM      30.12R
RUSH CITY      CLOUDY    40  29  64 CALM      30.13S
MOOSE LAKE     CLOUDY    36  28  75 E3        30.13S
HINCKLEY       FAIR      36  30  80 NE5       30.14S
CLOQUET        CLOUDY    32  25  74 CALM      30.14R
MCGREGOR       CLOUDY    37  30  75 CALM      30.14S
$$
MNZ071>073-080-081-089-090-097-098-290600-
   Southwest Minnesota

CITY           SKY/WX    TMP DP  RH WIND       PRES   REMARKS
MONTEVIDEO     CLOUDY    39  39 100 S3        30.16R
GRANITE FALLS  CLOUDY    41  38  91 E3        30.15F
CANBY          CLOUDY    41  40  97 CALM      30.14S
MARSHALL       CLOUDY    39  37  92 E7        30.13F
REDWOOD FALLS  CLOUDY    39  36  89 NE3       30.13F
OLIVIA         CLOUDY    39  36  87 E6        30.13S
PIPESTONE      CLOUDY    39  37  93 E6        30.10S
WINDOM         CLOUDY    39  37  93 NE9       30.11R
WORTHINGTON    CLOUDY    38  37  97 NE10      30.11S
JACKSON        CLOUDY    39  36  87 NE8       30.10F
TRACY          CLOUDY    39  38  97 NE7       30.12S
SLAYTON        CLOUDY    37  37 100 NE7       30.12R FOG
$$
MNZ065>067-074>077-082>085-091>093-290600-
   South Central Minnesota

CITY           SKY/WX    TMP DP  RH WIND       PRES   REMARKS
MANKATO        CLOUDY    39  36  87 NE10      30.10F
NEW ULM        CLOUDY    37  36  93 NE9       30.12S
ST JAMES       CLOUDY    36  34  93 N8        30.12S
FAIRMONT       CLOUDY    39  30  70 NE7       30.10S
GLENCOE        CLOUDY    38  38  99 N3        30.13F
FARIBAULT      CLOUDY    37  36  93 NE6       30.12S
OWATONNA       CLOUDY    37  36  93 NE9       30.09F
WASECA         CLOUDY    37  36  93 NE12      30.10F
ALBERT LEA     CLOUDY    39  39 100 NE12      30.09R
$$
MNZ078>079-086>088-094>096-290600-
   Southeast Minnesota

CITY           SKY/WX    TMP DP  RH WIND       PRES   REMARKS
ROCHESTER      CLOUDY    38  37  97 NE10      30.09S FOG
RED WING       LGT RAIN  37  36  93 NE3       30.12F
STANTON        DRIZZLE   38  35  89 NE6       30.12S
DODGE CENTER   CLOUDY    37  36  93 NE10      30.09S
WINONA         CLOUDY    39  36  87 CALM      30.11F
AUSTIN         CLOUDY    39  37  93 NE9       30.08R
PRESTON        CLOUDY    37  36  94 NE9G16    30.08F FOG
$$
ABBREVIATIONS USED IN REMARKS
   TC - TEMPERATURES IN CELSIUS
  WCI - WIND CHILL INDEX
   HX - HEAT INDEX
  VSB - VISIBILITY
$$




USA.gov is the U.S. government's official web portal to all federal, state and local government web resources and services.